MSR694 OEMA-HECA

Flight info

Callsign MSR694
Flight time 1h 51m
Altitude 38000
Route PEGUR Z712 WEJ L677 CVO
Aircraft B738/M-SDE2E3FGHIRWXY/LB1

Departure

Time 2026-05-08 18:43
Airport Prince Mohammad Bin Abdulaziz Airport (OEMA)

Arrival

Time 2026-05-08 20:34
Airport Cairo International Airport (HECA)
Time Latitude Longitude Altitude Speed Heading
2026-05-08 18:14 24.55472 39.71292 2101 ft 0 kts 79°
2026-05-08 18:29 24.55469 39.71276 2100 ft 2 kts 79°
2026-05-08 18:29 24.55466 39.71258 2100 ft 2 kts 79°
2026-05-08 18:29 24.55462 39.71240 2100 ft 2 kts 78°
2026-05-08 18:29 24.55461 39.71223 2100 ft 2 kts 96°
2026-05-08 18:30 24.55465 39.71205 2100 ft 2 kts 112°
2026-05-08 18:30 24.55473 39.71190 2100 ft 2 kts 133°
2026-05-08 18:30 24.55482 39.71181 2100 ft 1 kts 157°
2026-05-08 18:30 24.55484 39.71181 2100 ft 0 kts 160°
2026-05-08 18:34 24.55480 39.71182 2100 ft 2 kts 161°
2026-05-08 18:34 24.55461 39.71186 2100 ft 5 kts 173°
2026-05-08 18:35 24.55417 39.71194 2099 ft 8 kts 170°
2026-05-08 18:35 24.55351 39.71207 2097 ft 11 kts 169°
2026-05-08 18:35 24.55276 39.71218 2096 ft 9 kts 189°
2026-05-08 18:35 24.55241 39.71160 2095 ft 11 kts 257°
2026-05-08 18:36 24.55224 39.71080 2094 ft 10 kts 245°
2026-05-08 18:36 24.55158 39.71053 2093 ft 12 kts 176°
2026-05-08 18:36 24.55065 39.71072 2091 ft 15 kts 169°
2026-05-08 18:36 24.54953 39.71095 2089 ft 18 kts 169°
2026-05-08 18:37 24.54823 39.71123 2087 ft 20 kts 169°
2026-05-08 18:37 24.54676 39.71155 2084 ft 23 kts 169°
2026-05-08 18:37 24.54514 39.71189 2079 ft 24 kts 169°
2026-05-08 18:37 24.54341 39.71226 2076 ft 26 kts 167°
2026-05-08 18:38 24.54174 39.71261 2074 ft 20 kts 169°
2026-05-08 18:38 24.54060 39.71285 2073 ft 15 kts 169°
2026-05-08 18:38 24.53955 39.71307 2071 ft 17 kts 169°
2026-05-08 18:38 24.53851 39.71315 2069 ft 8 kts 211°
2026-05-08 18:39 24.53833 39.71270 2068 ft 0 kts 258°
2026-05-08 18:40 24.53833 39.71269 2068 ft 1 kts 258°
2026-05-08 18:40 24.53829 39.71252 2068 ft 3 kts 257°
2026-05-08 18:40 24.53823 39.71219 2068 ft 5 kts 259°
2026-05-08 18:40 24.53815 39.71172 2068 ft 5 kts 259°
2026-05-08 18:41 24.53819 39.71141 2068 ft 3 kts 313°
2026-05-08 18:41 24.53836 39.71138 2068 ft 2 kts
2026-05-08 18:41 24.53844 39.71138 2069 ft 1 kts 358°
2026-05-08 18:41 24.53980 39.71111 2070 ft 48 kts 349°
2026-05-08 18:42 24.54492 39.71002 2079 ft 100 kts 349°
2026-05-08 18:42 24.55329 39.70826 2093 ft 143 kts 349°
2026-05-08 18:42 24.56412 39.70597 2157 ft 169 kts 352°
2026-05-08 18:42 24.57563 39.70335 2500 ft 176 kts 341°
2026-05-08 18:43 24.58820 39.69935 2690 ft 195 kts 342°
2026-05-08 18:43 24.60204 39.69531 2902 ft 221 kts 343°
2026-05-08 18:43 24.61715 39.69144 3473 ft 222 kts 345°
2026-05-08 18:43 24.63217 39.68774 4157 ft 222 kts 343°
2026-05-08 18:44 24.64736 39.68340 4826 ft 227 kts 341°
2026-05-08 18:44 24.66237 39.67600 5012 ft 252 kts 316°
2026-05-08 18:44 24.67131 39.66013 5708 ft 246 kts 284°
2026-05-08 18:44 24.67474 39.64141 6353 ft 254 kts 278°
2026-05-08 18:45 24.67864 39.62227 7085 ft 255 kts 282°
2026-05-08 18:45 24.68441 39.60350 7687 ft 268 kts 295°
2026-05-08 18:45 24.69599 39.58704 8291 ft 281 kts 315°
2026-05-08 18:45 24.71198 39.57406 8830 ft 292 kts 323°
2026-05-08 18:46 24.72886 39.56138 8896 ft 295 kts 322°
2026-05-08 18:46 24.74569 39.54835 9042 ft 297 kts 322°
2026-05-08 18:46 24.76252 39.53511 9144 ft 298 kts 321°
2026-05-08 18:46 24.77936 39.52173 9185 ft 298 kts 321°
2026-05-08 18:47 24.79613 39.50832 9190 ft 298 kts 321°
2026-05-08 18:47 24.81289 39.49487 9185 ft 298 kts 321°
2026-05-08 18:47 24.82960 39.48143 9179 ft 298 kts 321°
2026-05-08 18:47 24.84646 39.46787 9646 ft 300 kts 321°
2026-05-08 18:48 24.86338 39.45421 10350 ft 306 kts 320°
2026-05-08 18:48 24.88101 39.44000 10698 ft 326 kts 320°
2026-05-08 18:48 24.89945 39.42515 11145 ft 339 kts 320°
2026-05-08 18:48 24.91889 39.40947 11848 ft 343 kts 320°
2026-05-08 18:49 24.93827 39.39384 12587 ft 348 kts 320°
2026-05-08 18:49 24.95793 39.37796 13347 ft 353 kts 320°
2026-05-08 18:49 24.97760 39.36208 14073 ft 358 kts 320°
2026-05-08 18:49 24.99776 39.34581 14868 ft 359 kts 321°
2026-05-08 18:50 25.01783 39.32959 15778 ft 356 kts 321°
2026-05-08 18:50 25.03787 39.31338 16537 ft 359 kts 321°
2026-05-08 18:50 25.05808 39.29703 17268 ft 361 kts 321°
2026-05-08 18:50 25.07844 39.28056 17992 ft 364 kts 321°
2026-05-08 18:51 25.09884 39.26404 18644 ft 366 kts 321°
2026-05-08 18:51 25.11937 39.24742 19302 ft 367 kts 322°
2026-05-08 18:51 25.13997 39.23073 19962 ft 367 kts 322°
2026-05-08 18:51 25.16060 39.21401 20610 ft 368 kts 322°
2026-05-08 18:52 25.18125 39.19726 21248 ft 369 kts 322°
2026-05-08 18:52 25.20196 39.18046 21877 ft 370 kts 322°
2026-05-08 18:52 25.22143 39.16194 22467 ft 370 kts 309°
2026-05-08 18:52 25.23615 39.13858 23080 ft 372 kts 304°
2026-05-08 18:53 25.25058 39.11478 23611 ft 374 kts 304°
2026-05-08 18:53 25.26010 39.09888 23976 ft 374 kts 304°
2026-05-08 18:53 25.27912 39.06678 24652 ft 376 kts 304°
2026-05-08 18:53 25.29344 39.04240 25060 ft 379 kts 304°
2026-05-08 18:54 25.30782 39.01786 25496 ft 382 kts 304°
2026-05-08 18:54 25.32230 38.99313 25933 ft 384 kts 304°
2026-05-08 18:54 25.33193 38.97665 26221 ft 386 kts 304°
2026-05-08 18:54 25.34651 38.95170 26678 ft 388 kts 305°
2026-05-08 18:55 25.37600 38.90119 27502 ft 393 kts 305°
2026-05-08 18:55 25.39085 38.87574 27930 ft 395 kts 306°
2026-05-08 18:55 25.40577 38.85014 28368 ft 397 kts 306°
2026-05-08 18:56 25.42077 38.82439 28749 ft 399 kts 306°
2026-05-08 18:56 25.43581 38.79857 29147 ft 402 kts 306°
2026-05-08 18:56 25.45102 38.77244 29553 ft 404 kts 306°
2026-05-08 18:56 25.46627 38.74622 29925 ft 406 kts 306°
2026-05-08 18:57 25.48160 38.71985 30258 ft 409 kts 306°
2026-05-08 18:57 25.49701 38.69332 30576 ft 411 kts 306°
2026-05-08 18:57 25.51248 38.66667 30907 ft 413 kts 305°
2026-05-08 18:57 25.52802 38.63992 31205 ft 415 kts 305°
2026-05-08 18:58 25.54360 38.61304 31520 ft 417 kts 305°
2026-05-08 18:58 25.55932 38.58593 31840 ft 418 kts 305°
2026-05-08 18:58 25.57476 38.55930 31657 ft 412 kts 305°
2026-05-08 18:58 25.59040 38.53230 31459 ft 419 kts 305°
2026-05-08 18:59 25.60613 38.50511 31826 ft 419 kts 305°
2026-05-08 18:59 25.62187 38.47788 32151 ft 421 kts 304°
2026-05-08 18:59 25.63766 38.45057 32525 ft 421 kts 304°
2026-05-08 18:59 25.65324 38.42360 32937 ft 420 kts 304°
2026-05-08 19:00 25.66898 38.39635 33371 ft 419 kts 304°
2026-05-08 19:00 25.68466 38.36918 33831 ft 418 kts 304°
2026-05-08 19:00 25.70027 38.34211 34223 ft 416 kts 304°
2026-05-08 19:00 25.71585 38.31507 34582 ft 415 kts 304°
2026-05-08 19:01 25.73140 38.28808 34917 ft 415 kts 303°
2026-05-08 19:01 25.74692 38.26113 35217 ft 415 kts 303°
2026-05-08 19:01 25.76242 38.23419 35505 ft 415 kts 303°
2026-05-08 19:01 25.77792 38.20724 35786 ft 415 kts 303°
2026-05-08 19:02 25.79341 38.18029 36088 ft 414 kts 303°
2026-05-08 19:02 25.80889 38.15335 36360 ft 414 kts 303°
2026-05-08 19:02 25.82436 38.12639 36579 ft 414 kts 303°
2026-05-08 19:02 25.83982 38.09945 36849 ft 414 kts 303°
2026-05-08 19:03 25.85526 38.07252 37111 ft 414 kts 302°
2026-05-08 19:03 25.87070 38.04557 37364 ft 413 kts 302°
2026-05-08 19:03 25.88612 38.01864 37607 ft 413 kts 302°
2026-05-08 19:03 25.90153 37.99172 37858 ft 413 kts 302°
2026-05-08 19:04 25.91696 37.96476 37911 ft 414 kts 302°
2026-05-08 19:04 25.94760 37.91118 37919 ft 411 kts 302°
2026-05-08 19:05 25.97819 37.85760 37913 ft 410 kts 302°
2026-05-08 19:05 26.00369 37.80140 37909 ft 410 kts 284°
2026-05-08 19:06 26.01395 37.73882 37903 ft 413 kts 282°
2026-05-08 19:06 26.02311 37.67577 37931 ft 413 kts 281°
2026-05-08 19:07 26.03176 37.61272 37953 ft 413 kts 281°
2026-05-08 19:07 26.04030 37.54958 37937 ft 412 kts 281°
2026-05-08 19:08 26.04879 37.48651 37928 ft 412 kts 281°
2026-05-08 19:08 26.05725 37.42342 37917 ft 413 kts 281°
2026-05-08 19:09 26.06569 37.36026 37917 ft 413 kts 281°
2026-05-08 19:09 26.07410 37.29712 37908 ft 413 kts 281°
2026-05-08 19:10 26.08250 37.23386 37893 ft 414 kts 281°
2026-05-08 19:10 26.09089 37.17045 37896 ft 415 kts 281°
2026-05-08 19:11 26.09920 37.10737 37885 ft 415 kts 281°
2026-05-08 19:11 26.10755 37.04383 37887 ft 415 kts 281°
2026-05-08 19:12 26.11587 36.98032 37875 ft 415 kts 281°
2026-05-08 19:12 26.12418 36.91661 37875 ft 417 kts 281°
2026-05-08 19:13 26.13248 36.85274 37875 ft 418 kts 281°
2026-05-08 19:13 26.14078 36.78870 37866 ft 418 kts 281°
2026-05-08 19:14 26.14905 36.72467 37860 ft 418 kts 281°
2026-05-08 19:14 26.15731 36.66049 37860 ft 419 kts 281°
2026-05-08 19:15 26.16554 36.59634 37858 ft 419 kts 281°
2026-05-08 19:15 26.17376 36.53216 37884 ft 419 kts 282°
2026-05-08 19:15 26.18136 36.50123 37860 ft 413 kts 296°
2026-05-08 19:16 26.19636 36.47420 37891 ft 411 kts 310°
2026-05-08 19:16 26.23438 36.42628 37880 ft 414 kts 313°
2026-05-08 19:17 26.27386 36.37963 37879 ft 414 kts 313°
2026-05-08 19:17 26.31372 36.33342 37878 ft 413 kts 314°
2026-05-08 19:18 26.35358 36.28741 37871 ft 413 kts 314°
2026-05-08 19:18 26.39345 36.24135 37863 ft 413 kts 314°
2026-05-08 19:19 26.43335 36.19521 37864 ft 414 kts 314°
2026-05-08 19:19 26.47326 36.14901 37861 ft 413 kts 314°
2026-05-08 19:20 26.51305 36.10291 37864 ft 413 kts 314°
2026-05-08 19:20 26.55294 36.05663 37865 ft 413 kts 314°
2026-05-08 19:21 26.59281 36.01033 37864 ft 413 kts 314°
2026-05-08 19:21 26.63267 35.96398 37864 ft 413 kts 314°
2026-05-08 19:22 26.67244 35.91771 37880 ft 413 kts 314°
2026-05-08 19:22 26.71215 35.87144 37867 ft 412 kts 314°
2026-05-08 19:23 26.75185 35.82515 37867 ft 412 kts 314°
2026-05-08 19:23 26.79124 35.77916 37868 ft 412 kts 314°
2026-05-08 19:24 26.83093 35.73277 37867 ft 412 kts 314°
2026-05-08 19:24 26.87061 35.68635 37870 ft 413 kts 314°
2026-05-08 19:25 26.91027 35.63990 37873 ft 413 kts 314°
2026-05-08 19:25 26.94993 35.59341 37873 ft 413 kts 314°
2026-05-08 19:26 26.98959 35.54687 37873 ft 413 kts 314°
2026-05-08 19:26 27.02924 35.50028 37863 ft 413 kts 314°
2026-05-08 19:27 27.06880 35.45375 37874 ft 411 kts 314°
2026-05-08 19:27 27.10819 35.40736 37879 ft 411 kts 314°
2026-05-08 19:28 27.14756 35.36096 37875 ft 411 kts 314°
2026-05-08 19:28 27.18695 35.31447 37884 ft 411 kts 314°
2026-05-08 19:29 27.22609 35.26823 37883 ft 411 kts 314°
2026-05-08 19:29 27.26544 35.22169 37879 ft 411 kts 313°
2026-05-08 19:30 27.30485 35.17503 37884 ft 412 kts 313°
2026-05-08 19:30 27.34428 35.12831 37886 ft 412 kts 313°
2026-05-08 19:31 27.38371 35.08152 37886 ft 412 kts 313°
2026-05-08 19:31 27.42309 35.03474 37900 ft 411 kts 313°
2026-05-08 19:32 27.46224 34.98819 37879 ft 409 kts 313°
2026-05-08 19:32 27.50143 34.94154 37888 ft 411 kts 313°
2026-05-08 19:33 27.54292 34.89741 37900 ft 411 kts 317°
2026-05-08 19:33 27.58462 34.85346 37886 ft 410 kts 316°
2026-05-08 19:34 27.62624 34.80938 37884 ft 411 kts 316°
2026-05-08 19:34 27.66786 34.76523 37883 ft 411 kts 316°
2026-05-08 19:35 27.70945 34.72107 37877 ft 411 kts 316°
2026-05-08 19:35 27.75116 34.67673 37890 ft 412 kts 316°
2026-05-08 19:36 27.79281 34.63241 37896 ft 411 kts 316°
2026-05-08 19:36 27.83436 34.58814 37902 ft 411 kts 316°
2026-05-08 19:37 27.87588 34.54386 37906 ft 411 kts 316°
2026-05-08 19:37 27.91732 34.49961 37909 ft 410 kts 316°
2026-05-08 19:38 27.95882 34.45525 37907 ft 411 kts 316°
2026-05-08 19:38 27.99961 34.41055 37902 ft 411 kts 310°
2026-05-08 19:39 28.03606 34.36068 37906 ft 412 kts 310°
2026-05-08 19:39 28.07233 34.31066 37914 ft 412 kts 310°
2026-05-08 19:40 28.10859 34.26049 37918 ft 411 kts 309°
2026-05-08 19:40 28.14481 34.21033 37967 ft 411 kts 310°
2026-05-08 19:41 28.18101 34.16009 37962 ft 412 kts 310°
2026-05-08 19:41 28.21729 34.10971 37978 ft 412 kts 309°
2026-05-08 19:42 28.22477 34.09932 37986 ft 413 kts 310°
2026-05-08 19:44 28.24837 34.06626 37986 ft 414 kts 309°
2026-05-08 19:44 28.28479 34.01578 37982 ft 413 kts 309°
2026-05-08 19:45 28.32110 33.96519 37984 ft 413 kts 309°
2026-05-08 19:45 28.35743 33.91452 38040 ft 414 kts 309°
2026-05-08 19:46 28.39361 33.86399 37998 ft 412 kts 309°
2026-05-08 19:46 28.44206 33.79620 38011 ft 413 kts 309°
2026-05-08 19:47 28.47826 33.74550 37968 ft 413 kts 309°
2026-05-08 19:47 28.51416 33.69515 37986 ft 413 kts 309°
2026-05-08 19:48 28.55031 33.64438 38021 ft 412 kts 309°
2026-05-08 19:48 28.58635 33.59372 38004 ft 411 kts 309°
2026-05-08 19:49 28.62227 33.54318 38007 ft 411 kts 309°
2026-05-08 19:49 28.65816 33.49259 38014 ft 411 kts 309°
2026-05-08 19:50 28.69407 33.44194 38007 ft 411 kts 309°
2026-05-08 19:50 28.72987 33.39136 38025 ft 411 kts 309°
2026-05-08 19:51 28.76570 33.34069 38024 ft 411 kts 309°
2026-05-08 19:51 28.80155 33.28992 38030 ft 411 kts 309°
2026-05-08 19:52 28.83738 33.23913 38026 ft 411 kts 309°
2026-05-08 19:52 28.87311 33.18842 38038 ft 411 kts 309°
2026-05-08 19:53 28.90887 33.13759 38043 ft 411 kts 308°
2026-05-08 19:53 28.92672 33.11220 37624 ft 409 kts 308°
2026-05-08 19:53 28.94450 33.08690 37018 ft 407 kts 308°
2026-05-08 19:54 28.96202 33.06195 36641 ft 399 kts 308°
2026-05-08 19:54 28.97920 33.03747 36308 ft 391 kts 308°
2026-05-08 19:54 28.99632 33.01307 35885 ft 398 kts 308°
2026-05-08 19:54 29.01339 32.98871 35342 ft 400 kts 308°
2026-05-08 19:55 29.03102 32.96354 34823 ft 400 kts 308°
2026-05-08 19:55 29.04812 32.93912 34322 ft 398 kts 308°
2026-05-08 19:55 29.06535 32.91449 33786 ft 395 kts 308°
2026-05-08 19:55 29.08243 32.89006 33226 ft 392 kts 308°
2026-05-08 19:56 29.09940 32.86578 32724 ft 389 kts 308°
2026-05-08 19:56 29.11622 32.84171 32257 ft 386 kts 308°
2026-05-08 19:56 29.13287 32.81785 31788 ft 383 kts 308°
2026-05-08 19:56 29.14940 32.79415 31322 ft 380 kts 308°
2026-05-08 19:57 29.16577 32.77067 30863 ft 378 kts 308°
2026-05-08 19:57 29.18211 32.74723 30407 ft 376 kts 308°
2026-05-08 19:57 29.19837 32.72388 30650 ft 376 kts 308°
2026-05-08 19:57 29.21478 32.70029 29910 ft 383 kts 308°
2026-05-08 19:58 29.23163 32.67608 29078 ft 396 kts 308°
2026-05-08 19:58 29.24907 32.65100 27449 ft 406 kts 308°
2026-05-08 19:58 29.26645 32.62600 27259 ft 394 kts 308°
2026-05-08 19:58 29.28320 32.60183 27161 ft 382 kts 308°
2026-05-08 19:59 29.29937 32.57827 26981 ft 371 kts 308°
2026-05-08 19:59 29.31523 32.55519 26648 ft 366 kts 308°
2026-05-08 19:59 29.33086 32.53244 26236 ft 364 kts 308°
2026-05-08 19:59 29.34646 32.50972 25843 ft 361 kts 308°
2026-05-08 20:00 29.36195 32.48715 25440 ft 359 kts 308°
2026-05-08 20:00 29.37735 32.46470 25040 ft 357 kts 308°
2026-05-08 20:00 29.39265 32.44238 24642 ft 355 kts 308°
2026-05-08 20:00 29.40787 32.42017 24261 ft 353 kts 308°
2026-05-08 20:01 29.42301 32.39807 23887 ft 351 kts 308°
2026-05-08 20:01 29.43805 32.37609 23481 ft 349 kts 308°
2026-05-08 20:01 29.45301 32.35422 23056 ft 347 kts 308°
2026-05-08 20:01 29.46781 32.33257 22667 ft 344 kts 308°
2026-05-08 20:02 29.48251 32.31106 22311 ft 341 kts 308°
2026-05-08 20:02 29.49690 32.28999 21968 ft 338 kts 308°
2026-05-08 20:02 29.51133 32.26885 21623 ft 335 kts 308°
2026-05-08 20:02 29.52563 32.24790 21275 ft 332 kts 308°
2026-05-08 20:03 29.53979 32.22712 20933 ft 329 kts 308°
2026-05-08 20:03 29.55382 32.20654 20595 ft 327 kts 308°
2026-05-08 20:03 29.56783 32.18599 20249 ft 325 kts 308°
2026-05-08 20:03 29.58175 32.16554 19915 ft 324 kts 308°
2026-05-08 20:04 29.59558 32.14522 19564 ft 329 kts 308°
2026-05-08 20:04 29.60975 32.12438 19224 ft 333 kts 308°
2026-05-08 20:04 29.62402 32.10340 18886 ft 333 kts 308°
2026-05-08 20:04 29.63817 32.08257 18547 ft 332 kts 308°
2026-05-08 20:05 29.65236 32.06169 18174 ft 330 kts 308°
2026-05-08 20:05 29.66644 32.04095 17799 ft 328 kts 308°
2026-05-08 20:05 29.68038 32.02039 17453 ft 325 kts 308°
2026-05-08 20:05 29.69421 32.00000 17014 ft 324 kts 308°
2026-05-08 20:06 29.70814 31.97946 16320 ft 324 kts 308°
2026-05-08 20:06 29.72194 31.95909 15679 ft 322 kts 309°
2026-05-08 20:06 29.73565 31.93885 15055 ft 318 kts 309°
2026-05-08 20:06 29.74918 31.91883 14459 ft 316 kts 309°
2026-05-08 20:07 29.76260 31.89901 13872 ft 313 kts 306°
2026-05-08 20:07 29.77596 31.87925 13203 ft 311 kts 309°
2026-05-08 20:07 29.78893 31.85950 12655 ft 306 kts 307°
2026-05-08 20:07 29.79757 31.83745 12166 ft 306 kts 282°
2026-05-08 20:08 29.79931 31.81315 11695 ft 302 kts 275°
2026-05-08 20:08 29.80001 31.78938 11316 ft 293 kts 275°
2026-05-08 20:08 29.80037 31.76628 10958 ft 284 kts 274°
2026-05-08 20:08 29.80075 31.74382 10573 ft 278 kts 275°
2026-05-08 20:09 29.80103 31.72149 10077 ft 282 kts 275°
2026-05-08 20:09 29.80141 31.69871 9558 ft 288 kts 275°
2026-05-08 20:09 29.80189 31.67559 9155 ft 289 kts 275°
2026-05-08 20:09 29.80219 31.65257 8863 ft 287 kts 275°
2026-05-08 20:10 29.80237 31.62975 8573 ft 283 kts 275°
2026-05-08 20:10 29.80257 31.60716 8310 ft 280 kts 275°
2026-05-08 20:10 29.80266 31.58488 8037 ft 277 kts 275°
2026-05-08 20:10 29.80271 31.56294 7794 ft 274 kts 274°
2026-05-08 20:11 29.80295 31.54111 7523 ft 271 kts 275°
2026-05-08 20:11 29.80300 31.51956 7261 ft 267 kts 274°
2026-05-08 20:11 29.80320 31.49864 7048 ft 263 kts 275°
2026-05-08 20:11 29.80345 31.47746 6808 ft 259 kts 275°
2026-05-08 20:12 29.80367 31.45715 6600 ft 255 kts 275°
2026-05-08 20:12 29.80386 31.43657 6404 ft 261 kts 275°
2026-05-08 20:12 29.80409 31.41541 6191 ft 267 kts 275°
2026-05-08 20:12 29.80428 31.39401 5984 ft 268 kts 275°
2026-05-08 20:13 29.80566 31.37284 5807 ft 262 kts 291°
2026-05-08 20:13 29.81333 31.35422 5650 ft 257 kts 304°
2026-05-08 20:13 29.82245 31.33656 5461 ft 257 kts 304°
2026-05-08 20:13 29.83161 31.31877 5208 ft 258 kts 304°
2026-05-08 20:14 29.84069 31.30097 4974 ft 258 kts 304°
2026-05-08 20:14 29.84967 31.28315 4788 ft 256 kts 304°
2026-05-08 20:14 29.85852 31.26542 4681 ft 253 kts 304°
2026-05-08 20:14 29.86821 31.24894 4390 ft 245 kts 322°
2026-05-08 20:15 29.88314 31.24103 4017 ft 236 kts 358°
2026-05-08 20:15 29.89885 31.24343 3767 ft 222 kts 14°
2026-05-08 20:15 29.91326 31.24765 3600 ft 216 kts 14°
2026-05-08 20:15 29.92803 31.25196 3402 ft 212 kts 15°
2026-05-08 20:16 29.94222 31.25587 3214 ft 208 kts 15°
2026-05-08 20:16 29.95616 31.25950 3016 ft 203 kts 15°
2026-05-08 20:16 29.96975 31.26290 2888 ft 196 kts 14°
2026-05-08 20:16 29.98291 31.26613 2726 ft 191 kts 14°
2026-05-08 20:17 29.99562 31.26927 2612 ft 182 kts 17°
2026-05-08 20:17 30.00669 31.27526 2494 ft 172 kts 38°
2026-05-08 20:17 30.01494 31.28441 2434 ft 157 kts 49°
2026-05-08 20:17 30.02179 31.29393 2537 ft 153 kts 49°
2026-05-08 20:18 30.02868 31.30325 2469 ft 152 kts 48°
2026-05-08 20:18 30.03554 31.31243 2306 ft 151 kts 48°
2026-05-08 20:18 30.04236 31.32153 2118 ft 148 kts 49°
2026-05-08 20:18 30.04902 31.33042 1952 ft 141 kts 49°
2026-05-08 20:19 30.05514 31.33858 1785 ft 130 kts 48°
2026-05-08 20:19 30.06102 31.34644 1579 ft 129 kts 48°
2026-05-08 20:19 30.06694 31.35433 1435 ft 131 kts 48°
2026-05-08 20:19 30.07273 31.36208 1255 ft 120 kts 47°
2026-05-08 20:20 30.07634 31.36691 1136 ft 112 kts 50°
2026-05-08 20:20 30.07801 31.36920 1102 ft 111 kts 47°
2026-05-08 20:20 30.08287 31.37565 951 ft 107 kts 44°
2026-05-08 20:20 30.08786 31.38253 775 ft 115 kts 46°
2026-05-08 20:21 30.09344 31.38952 647 ft 121 kts 47°
2026-05-08 20:21 30.09894 31.39735 488 ft 129 kts 46°
2026-05-08 20:21 30.10493 31.40519 453 ft 132 kts 47°
2026-05-08 20:21 30.11103 31.41271 1009 ft 136 kts 45°
2026-05-08 20:22 30.11780 31.42105 1290 ft 149 kts 49°
2026-05-08 20:22 30.12448 31.43064 1418 ft 161 kts 58°
2026-05-08 20:22 30.12593 31.44335 1360 ft 169 kts 106°
2026-05-08 20:22 30.12179 31.45110 1453 ft 174 kts 124°
2026-05-08 20:23 30.11062 31.46279 1658 ft 186 kts 145°
2026-05-08 20:23 30.09819 31.46797 1736 ft 194 kts 163°
2026-05-08 20:23 30.08486 31.47088 1914 ft 195 kts 166°
2026-05-08 20:23 30.07151 31.46845 1952 ft 201 kts 208°
2026-05-08 20:24 30.06093 31.45792 2061 ft 195 kts 227°
2026-05-08 20:24 30.05749 31.45361 2098 ft 184 kts 229°
2026-05-08 20:24 30.05473 31.45010 2109 ft 179 kts 229°
2026-05-08 20:25 30.04624 31.43935 2214 ft 184 kts 229°
2026-05-08 20:25 30.03767 31.42830 2426 ft 186 kts 229°
2026-05-08 20:25 30.02896 31.41706 2527 ft 189 kts 229°
2026-05-08 20:25 30.02016 31.40564 2544 ft 194 kts 229°
2026-05-08 20:26 30.01086 31.39362 2559 ft 207 kts 229°
2026-05-08 20:26 30.00095 31.38102 2561 ft 216 kts 229°
2026-05-08 20:26 29.99089 31.36829 2512 ft 209 kts 228°
2026-05-08 20:26 29.98113 31.35574 2500 ft 211 kts 229°
2026-05-08 20:27 29.97128 31.34312 2496 ft 211 kts 229°
2026-05-08 20:27 29.96152 31.33060 2470 ft 209 kts 229°
2026-05-08 20:27 29.95189 31.31820 2475 ft 201 kts 229°
2026-05-08 20:27 29.94267 31.30633 2493 ft 199 kts 229°
2026-05-08 20:28 29.93615 31.29270 2442 ft 192 kts 265°
2026-05-08 20:28 29.93787 31.27844 2384 ft 177 kts 308°
2026-05-08 20:28 29.94642 31.26973 2433 ft 159 kts 347°
2026-05-08 20:28 29.95712 31.26642 2586 ft 160 kts 354°
2026-05-08 20:29 29.96806 31.26393 2604 ft 160 kts 359°
2026-05-08 20:29 29.97894 31.26466 2538 ft 151 kts 13°
2026-05-08 20:29 29.98901 31.26682 2511 ft 149 kts 15°
2026-05-08 20:29 29.99922 31.26961 2494 ft 153 kts 25°
2026-05-08 20:30 30.00805 31.27618 2466 ft 151 kts 43°
2026-05-08 20:30 30.01522 31.28502 2450 ft 151 kts 49°
2026-05-08 20:30 30.02197 31.29424 2512 ft 150 kts 49°
2026-05-08 20:30 30.02874 31.30333 2515 ft 146 kts 48°
2026-05-08 20:31 30.03522 31.31200 2568 ft 139 kts 48°
2026-05-08 20:31 30.04137 31.32021 2441 ft 132 kts 48°
2026-05-08 20:31 30.04723 31.32803 2226 ft 127 kts 48°
2026-05-08 20:31 30.05303 31.33578 2028 ft 128 kts 48°
2026-05-08 20:32 30.05881 31.34343 1763 ft 122 kts 48°
2026-05-08 20:32 30.06436 31.35096 1544 ft 124 kts 49°
2026-05-08 20:32 30.07018 31.35876 1379 ft 131 kts 48°
2026-05-08 20:32 30.07606 31.36662 1209 ft 129 kts 48°
2026-05-08 20:33 30.08178 31.37466 1013 ft 130 kts 46°
2026-05-08 20:33 30.08790 31.38251 809 ft 135 kts 46°
2026-05-08 20:33 30.09402 31.39073 634 ft 133 kts 49°
2026-05-08 20:33 30.10000 31.39865 425 ft 128 kts 49°
2026-05-08 20:34 30.10533 31.40577 377 ft 97 kts 49°
2026-05-08 20:34 30.10847 31.40994 377 ft 43 kts 48°
2026-05-08 20:34 30.11071 31.41290 377 ft 22 kts 50°
2026-05-08 20:35 30.11179 31.41433 377 ft 26 kts 49°
2026-05-08 20:35 30.11291 31.41550 377 ft 19 kts 25°
2026-05-08 20:35 30.11414 31.41601 377 ft 18 kts 20°
2026-05-08 20:35 30.11522 31.41625 377 ft 13 kts 348°
2026-05-08 20:36 30.11559 31.41576 377 ft 9 kts 266°
2026-05-08 20:36 30.11545 31.41526 377 ft 11 kts 244°
2026-05-08 20:36 30.11473 31.41425 377 ft 14 kts 229°
2026-05-08 20:36 30.11427 31.41365 377 ft 16 kts 229°
2026-05-08 20:37 30.11351 31.41264 377 ft 18 kts 229°
2026-05-08 20:37 30.11262 31.41147 377 ft 21 kts 229°
2026-05-08 20:37 30.11168 31.41022 377 ft 16 kts 229°
2026-05-08 20:37 30.11114 31.40948 377 ft 9 kts 229°
2026-05-08 20:38 30.11083 31.40907 377 ft 11 kts 229°
2026-05-08 20:38 30.11066 31.40829 377 ft 10 kts 301°
2026-05-08 20:38 30.11079 31.40749 377 ft 12 kts 241°
2026-05-08 20:38 30.11020 31.40670 377 ft 14 kts 227°
2026-05-08 20:39 30.10953 31.40578 377 ft 16 kts 229°
2026-05-08 20:39 30.10875 31.40472 377 ft 19 kts 230°
2026-05-08 20:39 30.10790 31.40361 377 ft 18 kts 229°
2026-05-08 20:39 30.10704 31.40246 377 ft 20 kts 229°
2026-05-08 20:40 30.10606 31.40117 377 ft 22 kts 229°
2026-05-08 20:40 30.10522 31.40005 377 ft 16 kts 228°
2026-05-08 20:40 30.10490 31.39908 377 ft 13 kts 285°
2026-05-08 20:40 30.10548 31.39850 377 ft 12 kts 345°
2026-05-08 20:41 30.10640 31.39823 377 ft 15 kts 347°
2026-05-08 20:41 30.10744 31.39791 377 ft 14 kts 345°
2026-05-08 20:41 30.10753 31.39788 377 ft 2 kts 346°
2026-05-08 20:41 30.10774 31.39792 377 ft 4 kts 31°
2026-05-08 20:42 30.10780 31.39822 377 ft 5 kts 86°
2026-05-08 20:42 30.10789 31.39867 377 ft 7 kts 77°
2026-05-08 20:42 30.10792 31.39881 377 ft 0 kts 75°